Location: Biharia
(46.4333°N, 22.8000°E)
Time: 03:27:22
(UTC+00:00)

Cosmos 494 Rocket - Pass Details

Date: 01 June 2022
Orbit: 742 x 770 km, 74.1° (Epoch: 05 July)

Event Time Altitude Azimuth Distance (km) Brightness Sun altitude
Rises 22:08:05 0° 332° (NNW) 3,191 8.4 -21.3°
Reaches altitude 10° 22:10:31 10° 327° (NNW) 2,264 7.3 -21.3°
Maximum altitude 22:15:22 45° 256° (WSW) 1,015 4.5 -21.4°
Enters shadow 22:16:26 39° 223° (SW) 1,108 4.5 -21.4°
